TimePST,TemperatureF,Dew PointF,Humidity,Sea Level PressureIn,VisibilityMPH,Wind Direction,Wind SpeedMPH,Gust SpeedMPH,PrecipitationIn,Events,Conditions,WindDirDegrees,DateUTC
12:46 AM,41.0,39.2,93,30.21,10.0,Calm,Calm,-,N/A,,Clear,0,2013-02-01 08:46:00
1:46 AM,35.6,35.6,100,30.21,10.0,Calm,Calm,-,N/A,,Clear,0,2013-02-01 09:46:00
2:46 AM,35.6,35.6,100,30.21,10.0,Calm,Calm,-,N/A,,Clear,0,2013-02-01 10:46:00
3:46 AM,33.8,33.8,100,30.20,10.0,Calm,Calm,-,N/A,Fog,Shallow Fog,0,2013-02-01 11:46:00
4:46 AM,32.0,32.0,100,30.21,8.0,Calm,Calm,-,N/A,Fog,Shallow Fog,0,2013-02-01 12:46:00
5:46 AM,33.8,33.8,100,30.21,4.0,Calm,Calm,-,N/A,,Clear,0,2013-02-01 13:46:00
6:45 AM,32.0,32.0,100,30.22,6.0,Calm,Calm,-,N/A,Fog,Shallow Fog,0,2013-02-01 14:45:00
7:45 AM,32.0,32.0,100,30.23,10.0,Calm,Calm,-,N/A,,Clear,0,2013-02-01 15:45:00
8:58 AM,44.6,41.0,87,30.24,10.0,NE,3.5,-,N/A,,Clear,40,2013-02-01 16:58:00
10:47 AM,53.6,41.0,62,30.23,10.0,Calm,Calm,-,N/A,,Clear,0,2013-02-01 18:47:00
11:48 AM,55.4,42.8,63,30.22,10.0,Calm,Calm,-,N/A,,Clear,0,2013-02-01 19:48:00
12:48 PM,59.0,44.6,59,30.19,10.0,Calm,Calm,-,N/A,,Clear,0,2013-02-01 20:48:00
1:45 PM,60.8,41.0,48,30.17,10.0,Calm,Calm,-,N/A,,Clear,0,2013-02-01 21:45:00
2:47 PM,62.6,41.0,45,30.15,10.0,Calm,Calm,-,N/A,,Partly Cloudy,0,2013-02-01 22:47:00
3:45 PM,64.4,41.0,42,30.15,10.0,Calm,Calm,-,N/A,,Partly Cloudy,0,2013-02-01 23:45:00
6:45 PM,53.6,46.4,77,30.18,10.0,Calm,Calm,-,N/A,,Scattered Clouds,0,2013-02-02 02:45:00
8:55 PM,46.4,44.6,93,30.21,10.0,East,6.9,-,N/A,,Scattered Clouds,90,2013-02-02 04:55:00
9:45 PM,42.8,41.0,93,30.22,10.0,Calm,Calm,-,N/A,,Scattered Clouds,0,2013-02-02 05:45:00
10:55 PM,44.6,41.0,87,30.22,10.0,Calm,Calm,-,N/A,,Scattered Clouds,0,2013-02-02 06:55:00
11:45 PM,42.8,39.2,87,30.23,10.0,NNE,3.5,-,N/A,,Scattered Clouds,30,2013-02-02 07:45:00